This demonstration page uses our WeatherBlox Daily Observations layout. Learn more.

Left ArrowRight Arrow

47.50024, -111.30081

Hourly Observations for March 24, 2017

Temp ( °F °C ) Dew Point ( °F °C ) Humidity (%) Winds ( mph kmh ) Pressure ( in mb ) Visibility ( mi km ) Precip ( " mm )
12:53 am 00:53 Clear 32 0 18 -7.8 56 56 ESE 3 6 30.06 1018 10 16 0.00 0.00
1:53 am 01:53 Clear 30 -1.1 17 -8.3 58 58 ESE 3 6 30.06 1018 10 16 0.00 0.00
2:53 am 02:53 Clear 33 0.6 18 -7.8 54 54 Calm 30.05 1018 10 16 0.00 0.00
3:53 am 03:53 Clear 28 -2.2 17 -8.3 63 63 Calm 30.07 1018 10 16 0.00 0.00
4:53 am 04:53 Clear 26 -3.3 16 -8.9 66 66 SSW 3 6 30.07 1018 10 16 0.00 0.00
5:53 am 05:53 Clear 29 -1.7 19 -7.2 66 66 S 9 15 30.05 1018 10 16 0.00 0.00
6:53 am 06:53 Clear 28 -2.2 18 -7.8 66 66 S 6 9 30.06 1018 10 16 0.00 0.00
7:53 am 07:53 Sunny 32 0 20 -6.7 61 61 S 9 15 30.07 1018 10 16 0.00 0.00
8:53 am 08:53 Sunny 39 3.9 23 -5 53 53 S 9 15 30.06 1018 10 16 0.00 0.00
9:53 am 09:53 Sunny 46 7.8 22 -5.6 38 38 S 12 19 30.02 1017 10 16 0.00 0.00
10:53 am 10:53 Sunny 52 11.1 20 -6.7 28 28 SSW 18 30 29.98 1015 10 16 0.00 0.00
11:53 am 11:53 Sunny 56 13.3 20 -6.7 24 24 SSW 17 28 29.96 1015 10 16 0.00 0.00
12:53 pm 12:53 Sunny 60 15.6 20 -6.7 21 21 S 21 33 29.90 1013 10 16 0.00 0.00
1:53 pm 13:53 Sunny 62 16.7 14 -10 15 15 SSW 17 28 29.86 1011 10 16 0.00 0.00
2:53 pm 14:53 Sunny 65 18.3 16 -8.9 15 15 S 24 39 29.79 1009 10 16 0.00 0.00
3:53 pm 15:53 Sunny 64 17.8 17 -8.3 16 16 S 20 31 29.77 1008 10 16 0.00 0.00
4:53 pm 16:53 Sunny 65 18.3 19 -7.2 17 17 S 20 31 29.74 1007 10 16 0.00 0.00
5:53 pm 17:53 Sunny 62 16.7 19 -7.2 19 19 S 18 30 29.72 1007 10 16 0.00 0.00
6:53 pm 18:53 Mostly Sunny 60 15.6 18 -7.8 19 19 S 21 33 29.73 1007 10 16 0.00 0.00
7:53 pm 19:53 Cloudy 57 13.9 19 -7.2 23 23 S 20 31 29.75 1007 10 16 0.00 0.00
8:18 pm 20:18 Cloudy 55 13 23 -5 28 28 WSW 18 30 29.65 1004 10 16 0.00 0.00
8:53 pm 20:53 Cloudy 54 12.2 26 -3.3 34 34 WSW 22 35 29.76 1008 10 16 0.00 0.00
9:53 pm 21:53 Cloudy 51 10.6 28 -2.2 41 41 WSW 18 30 29.78 1009 10 16 0.00 0.00
10:53 pm 22:53 Mostly Cloudy 49 9.4 31 -0.6 50 50 WSW 21 33 29.80 1009 10 16 0.00 0.00
11:53 pm 23:53 Partly Cloudy 46 7.8 31 -0.6 56 56 SSW 16 26 29.83 1010 10 16 0.00 0.00

Powered by AerisWeather